Погода в Ельцовке

Россия / Алтайский край     53°15′18″N   86°15′40″E
темп.,
°C
ветер,
м/с
пор.,
м/с
влажн.,
%
обл.,
%
осадки,
мм/ч
давл.,
гПа
погр.,
м
7 мая, пт
пт701:00+14юв227286 0.0 100512
04:00+15ююв2269100 0.0 100412
07:00+16ююз3960100 0.0 1005182
10:00+16з61068100 0.0 1008538
13:00+16з5876100 0.1 1010727
16:00+14зюз4882100 0.7 1012559
19:00+15зсз3861100 0.8 1014298
22:00+10зюз116699 0.0 101710
8 мая, сб
сб801:00+8юз227144 0.0 101911
04:00+6з22711 0.0 102013
07:00+8з12700 0.0 102150
10:00+13з34500 0.0 1021721
13:00+16зсз34380 0.0 10201406
16:00+17зсз45375 0.0 10191803
19:00+16сз25495 0.0 1019561
22:00+11ююз336182 0.0 101924
9 мая, вс
вс901:00+12ююз395886 0.0 1018177
04:00+11юз41158100 0.0 1018249
07:00+11зюз2767100 0.0 1018179
10:00+14з455572 0.0 1018580
13:00+18сз464977 0.0 10171780
16:00+18ссз55425 0.0 10161839
19:00+16ссв464665 0.0 1017469
22:00+9св395618 0.0 1019201
10 мая, пн
пн1001:00+7всв3962100 0.0 1018186
04:00+5св376413 0.0 1016138
07:00+6св26675 0.0 1015157
10:00+13всв344873 0.0 1012679
13:00+16св4438100 0.0 10101248
16:00+16ссв5539100 0.0 10081226
19:00+13с4751100 0.0 1009673
22:00+11зсз2252100 0.0 100911
11 мая, вт
вт1101:00+8с226573 0.0 100819
04:00+4сз35770 0.0 101187
07:00+4сз35777 0.0 1012210
10:00+10сз335894 0.0 1013849
13:00+13зсз335284 0.2 10131480
16:00+12ссз556188 0.6 10141233
19:00+12с2663100 1.3 1015784
22:00+7ссз227394 0.2 101820